Starlink 1167

operational
NORAD ID: 45071 Int'l Des: 2020-006 Owner: SPXS Country: US Constellation: starlink
LEOCIRCULARSTARLINK_TYPE

关于 Starlink 1167

正在加载描述...

实时位置

正在加载3D地球...

即将过境

高度历史

Altitude vs Time

uPlot chart will show altitude changes over time

两行轨道根数

1 45071U 20006AD 25351.12147205 .00013342 00000-0 91187-3 0 9995
2 45071 53.0550 277.2813 0001586 119.7854 240.3293 15.06441978324290
Epoch: Dec 17, 2025 • Age: 31 hours

当前状态

高度 547.2 km
速度 7.59 km/s
星下点 0.20°N, 145.38°W
发射日期 Jan 29, 2020
运行时间 5.8 years
类型 internet

技术详情

分类 Payload
质量 260.00 kg
干质量 248.00 kg
总质量 260.00 kg
长度 0.20 m
直径 2.80 m
跨度 9.00 m
形状 Box + pan
制造商 SPXS
平台类型 Starlink
阶段状态 In Orbit
所有者/国家 SPXS/US

大型星座

Loading constellations...